LAN3201 SCEL-SABE

Flight info

Callsign LAN3201
Flight time 1h 30m
Altitude 37000
Route ALBAL7C ALBAL UM424 ASADA ASADA8Q
Aircraft A320/M-SDE3FGHIRWY/LB1

Departure

Time 2026-05-05 13:20
Airport Comodoro Arturo Merino Benítez International Airport (SCEL)

Arrival

Time 2026-05-05 14:50
Airport Aeroparque Jorge Newbery (SABE)
Time Latitude Longitude Altitude Speed Heading
2026-05-05 12:29 -33.39905 -70.78987 1564 ft 0 kts 177°
2026-05-05 13:09 -33.39886 -70.78988 1564 ft 4 kts 172°
2026-05-05 13:09 -33.39860 -70.78995 1564 ft 4 kts 157°
2026-05-05 13:10 -33.39839 -70.79012 1564 ft 4 kts 111°
2026-05-05 13:10 -33.39836 -70.79026 1564 ft 1 kts 87°
2026-05-05 13:10 -33.39836 -70.79028 1564 ft 0 kts 87°
2026-05-05 13:12 -33.39836 -70.79022 1564 ft 4 kts 87°
2026-05-05 13:12 -33.39835 -70.78986 1564 ft 4 kts 87°
2026-05-05 13:13 -33.39833 -70.78931 1564 ft 7 kts 87°
2026-05-05 13:13 -33.39817 -70.78879 1564 ft 9 kts 34°
2026-05-05 13:13 -33.39753 -70.78853 1564 ft 11 kts 60°
2026-05-05 13:13 -33.39723 -70.78777 1564 ft 11 kts 25°
2026-05-05 13:14 -33.39646 -70.78781 1564 ft 12 kts 356°
2026-05-05 13:14 -33.39559 -70.78786 1564 ft 13 kts 356°
2026-05-05 13:14 -33.39463 -70.78790 1564 ft 15 kts 359°
2026-05-05 13:14 -33.39357 -70.78793 1564 ft 16 kts 358°
2026-05-05 13:15 -33.39242 -70.78799 1564 ft 17 kts 357°
2026-05-05 13:15 -33.39119 -70.78806 1564 ft 18 kts 357°
2026-05-05 13:15 -33.38988 -70.78815 1564 ft 19 kts 357°
2026-05-05 13:15 -33.38848 -70.78822 1564 ft 20 kts 358°
2026-05-05 13:16 -33.38704 -70.78828 1564 ft 21 kts 358°
2026-05-05 13:16 -33.38555 -70.78835 1564 ft 22 kts 358°
2026-05-05 13:16 -33.38402 -70.78843 1564 ft 22 kts 358°
2026-05-05 13:16 -33.38247 -70.78851 1564 ft 23 kts 357°
2026-05-05 13:17 -33.38088 -70.78860 1564 ft 23 kts 357°
2026-05-05 13:17 -33.37926 -70.78869 1565 ft 23 kts 357°
2026-05-05 13:17 -33.37761 -70.78877 1564 ft 24 kts 357°
2026-05-05 13:17 -33.37652 -70.78875 1564 ft 13 kts 25°
2026-05-05 13:18 -33.37621 -70.78784 1564 ft 0 kts 89°
2026-05-05 13:18 -33.37621 -70.78756 1564 ft 11 kts 91°
2026-05-05 13:18 -33.37648 -70.78674 1565 ft 10 kts 147°
2026-05-05 13:19 -33.37718 -70.78663 1565 ft 16 kts 179°
2026-05-05 13:19 -33.38083 -70.78646 1565 ft 89 kts 177°
2026-05-05 13:19 -33.38907 -70.78600 1565 ft 146 kts 177°
2026-05-05 13:19 -33.40079 -70.78528 1590 ft 188 kts 176°
2026-05-05 13:20 -33.41368 -70.78444 2268 ft 183 kts 177°
2026-05-05 13:20 -33.42636 -70.78379 3063 ft 181 kts 178°
2026-05-05 13:20 -33.43915 -70.78330 3626 ft 192 kts 178°
2026-05-05 13:20 -33.45327 -70.78255 3903 ft 214 kts 176°
2026-05-05 13:21 -33.46885 -70.78153 4231 ft 233 kts 176°
2026-05-05 13:21 -33.48591 -70.78038 4600 ft 258 kts 175°
2026-05-05 13:21 -33.50452 -70.77914 5163 ft 273 kts 175°
2026-05-05 13:21 -33.52374 -70.77794 5918 ft 281 kts 176°
2026-05-05 13:22 -33.54351 -70.77677 6670 ft 287 kts 177°
2026-05-05 13:22 -33.56368 -70.77559 7397 ft 294 kts 177°
2026-05-05 13:22 -33.58425 -70.77433 8165 ft 299 kts 178°
2026-05-05 13:22 -33.60529 -70.77302 8918 ft 306 kts 178°
2026-05-05 13:23 -33.62673 -70.77169 9667 ft 311 kts 178°
2026-05-05 13:23 -33.64861 -70.77034 10324 ft 321 kts 178°
2026-05-05 13:23 -33.66406 -70.76941 10499 ft 337 kts 179°
2026-05-05 13:23 -33.68821 -70.76796 10829 ft 356 kts 179°
2026-05-05 13:24 -33.71318 -70.76642 11484 ft 362 kts 179°
2026-05-05 13:24 -33.73849 -70.76483 12219 ft 366 kts 179°
2026-05-05 13:24 -33.76405 -70.76321 12956 ft 369 kts 179°
2026-05-05 13:24 -33.78954 -70.75778 13656 ft 377 kts 165°
2026-05-05 13:25 -33.81358 -70.74455 14286 ft 385 kts 149°
2026-05-05 13:25 -33.83444 -70.72401 14862 ft 392 kts 133°
2026-05-05 13:25 -33.85042 -70.69733 15437 ft 397 kts 117°
2026-05-05 13:25 -33.86221 -70.66716 16004 ft 401 kts 114°
2026-05-05 13:26 -33.87392 -70.63641 16582 ft 406 kts 114°
2026-05-05 13:26 -33.88575 -70.60533 17160 ft 411 kts 114°
2026-05-05 13:26 -33.89774 -70.57380 17719 ft 417 kts 114°
2026-05-05 13:26 -33.90990 -70.54189 18285 ft 422 kts 114°
2026-05-05 13:27 -33.92220 -70.50962 18763 ft 426 kts 115°
2026-05-05 13:27 -33.93477 -70.47658 19300 ft 430 kts 115°
2026-05-05 13:27 -33.94733 -70.44355 19792 ft 435 kts 115°
2026-05-05 13:27 -33.95994 -70.41036 20346 ft 438 kts 115°
2026-05-05 13:28 -33.97266 -70.37689 20832 ft 442 kts 115°
2026-05-05 13:28 -33.98549 -70.34307 21342 ft 445 kts 115°
2026-05-05 13:28 -33.99839 -70.30898 21841 ft 448 kts 115°
2026-05-05 13:28 -34.01139 -70.27468 22320 ft 452 kts 115°
2026-05-05 13:29 -34.02450 -70.24011 22849 ft 456 kts 115°
2026-05-05 13:29 -34.03768 -70.20520 23347 ft 459 kts 115°
2026-05-05 13:29 -34.05093 -70.16999 23792 ft 463 kts 115°
2026-05-05 13:29 -34.06430 -70.13452 24158 ft 466 kts 115°
2026-05-05 13:30 -34.07777 -70.09875 24495 ft 469 kts 115°
2026-05-05 13:30 -34.09127 -70.06287 24902 ft 471 kts 115°
2026-05-05 13:30 -34.10482 -70.02678 25284 ft 473 kts 115°
2026-05-05 13:30 -34.11842 -69.99054 25675 ft 475 kts 115°
2026-05-05 13:31 -34.13206 -69.95413 26098 ft 477 kts 115°
2026-05-05 13:31 -34.14573 -69.91754 26524 ft 479 kts 115°
2026-05-05 13:31 -34.15940 -69.88083 26912 ft 481 kts 115°
2026-05-05 13:31 -34.17308 -69.84389 27300 ft 483 kts 113°
2026-05-05 13:32 -34.18402 -69.80542 27635 ft 485 kts 104°
2026-05-05 13:32 -34.19053 -69.76541 27966 ft 486 kts 99°
2026-05-05 13:32 -34.19604 -69.72501 28302 ft 488 kts 99°
2026-05-05 13:32 -34.20160 -69.68442 28635 ft 490 kts 99°
2026-05-05 13:33 -34.20728 -69.64316 28988 ft 492 kts 99°
2026-05-05 13:33 -34.21292 -69.60230 29333 ft 494 kts 99°
2026-05-05 13:33 -34.21859 -69.56131 29664 ft 495 kts 99°
2026-05-05 13:33 -34.22423 -69.52019 29973 ft 497 kts 99°
2026-05-05 13:34 -34.22985 -69.47891 30236 ft 499 kts 99°
2026-05-05 13:34 -34.23549 -69.43750 30485 ft 500 kts 99°
2026-05-05 13:34 -34.24117 -69.39602 30759 ft 501 kts 99°
2026-05-05 13:34 -34.24683 -69.35441 30999 ft 502 kts 99°
2026-05-05 13:35 -34.25246 -69.31271 31250 ft 503 kts 99°
2026-05-05 13:35 -34.25805 -69.27100 31587 ft 502 kts 99°
2026-05-05 13:35 -34.26361 -69.22945 31919 ft 502 kts 99°
2026-05-05 13:35 -34.26918 -69.18776 32239 ft 501 kts 99°
2026-05-05 13:36 -34.27473 -69.14614 32541 ft 501 kts 99°
2026-05-05 13:36 -34.28027 -69.10460 32844 ft 502 kts 99°
2026-05-05 13:36 -34.28582 -69.06286 33152 ft 502 kts 99°
2026-05-05 13:36 -34.29136 -69.02126 33459 ft 502 kts 99°
2026-05-05 13:37 -34.29686 -68.97955 33757 ft 502 kts 99°
2026-05-05 13:37 -34.30232 -68.93781 34053 ft 503 kts 99°
2026-05-05 13:37 -34.30774 -68.89591 34297 ft 504 kts 99°
2026-05-05 13:37 -34.31316 -68.85405 34536 ft 504 kts 99°
2026-05-05 13:38 -34.31863 -68.81162 34768 ft 505 kts 99°
2026-05-05 13:38 -34.32398 -68.77017 34985 ft 505 kts 98°
2026-05-05 13:38 -34.32945 -68.72766 35209 ft 506 kts 98°
2026-05-05 13:38 -34.33486 -68.68563 35424 ft 506 kts 98°
2026-05-05 13:39 -34.34027 -68.64354 35630 ft 507 kts 98°
2026-05-05 13:39 -34.34566 -68.60141 35846 ft 507 kts 98°
2026-05-05 13:39 -34.35105 -68.55925 36037 ft 507 kts 98°
2026-05-05 13:39 -34.35644 -68.51703 36227 ft 508 kts 98°
2026-05-05 13:40 -34.36183 -68.47474 36403 ft 509 kts 98°
2026-05-05 13:40 -34.36717 -68.43240 36588 ft 509 kts 98°
2026-05-05 13:40 -34.37250 -68.38999 36763 ft 510 kts 98°
2026-05-05 13:40 -34.37782 -68.34754 36946 ft 511 kts 98°
2026-05-05 13:41 -34.38845 -68.26261 36994 ft 510 kts 98°
2026-05-05 13:41 -34.39904 -68.17785 36991 ft 509 kts 98°
2026-05-05 13:42 -34.40952 -68.09313 36993 ft 509 kts 98°
2026-05-05 13:42 -34.41991 -68.00840 36994 ft 508 kts 98°
2026-05-05 13:43 -34.43027 -67.92374 36991 ft 508 kts 98°
2026-05-05 13:43 -34.44069 -67.83844 36994 ft 508 kts 98°
2026-05-05 13:44 -34.45090 -67.75373 36996 ft 508 kts 98°
2026-05-05 13:44 -34.46073 -67.66905 36994 ft 508 kts 97°
2026-05-05 13:45 -34.47044 -67.58424 36998 ft 508 kts 98°
2026-05-05 13:45 -34.48018 -67.49935 36991 ft 508 kts 98°
2026-05-05 13:46 -34.48991 -67.41452 36999 ft 508 kts 98°
2026-05-05 13:46 -34.49961 -67.32976 36992 ft 508 kts 98°
2026-05-05 13:47 -34.50913 -67.24488 36991 ft 508 kts 98°
2026-05-05 13:47 -34.51857 -67.15995 36993 ft 508 kts 98°
2026-05-05 13:48 -34.52802 -67.07502 36993 ft 508 kts 98°
2026-05-05 13:48 -34.53748 -66.99005 36991 ft 508 kts 98°
2026-05-05 13:49 -34.54694 -66.90442 36993 ft 509 kts 98°
2026-05-05 13:49 -34.55616 -66.81934 36991 ft 509 kts 98°
2026-05-05 13:50 -34.56539 -66.73422 36986 ft 509 kts 98°
2026-05-05 13:50 -34.57462 -66.64904 36980 ft 509 kts 98°
2026-05-05 13:51 -34.58377 -66.56375 36980 ft 510 kts 98°
2026-05-05 13:51 -34.59275 -66.47851 36975 ft 510 kts 98°
2026-05-05 13:52 -34.60169 -66.39310 36977 ft 510 kts 98°
2026-05-05 13:52 -34.61070 -66.30763 36973 ft 511 kts 98°
2026-05-05 13:53 -34.61975 -66.22207 36971 ft 511 kts 98°
2026-05-05 13:53 -34.62864 -66.13650 36974 ft 511 kts 97°
2026-05-05 13:54 -34.63745 -66.05083 36973 ft 511 kts 97°
2026-05-05 13:54 -34.64625 -65.96454 36974 ft 512 kts 97°
2026-05-05 13:55 -34.65340 -65.89318 36978 ft 512 kts 97°
2026-05-05 13:55 -34.66199 -65.80730 36984 ft 512 kts 97°
2026-05-05 13:56 -34.67057 -65.72137 36986 ft 512 kts 97°
2026-05-05 13:56 -34.67916 -65.63554 36986 ft 512 kts 98°
2026-05-05 13:57 -34.68774 -65.54954 36987 ft 513 kts 97°
2026-05-05 13:57 -34.69614 -65.46349 36988 ft 513 kts 97°
2026-05-05 13:58 -34.70444 -65.37683 36989 ft 513 kts 97°
2026-05-05 13:58 -34.71270 -65.29077 36997 ft 513 kts 97°
2026-05-05 13:59 -34.72506 -65.16161 36986 ft 513 kts 97°
2026-05-05 14:00 -34.73727 -65.03242 36993 ft 513 kts 97°
2026-05-05 14:00 -34.74533 -64.94626 36991 ft 513 kts 97°
2026-05-05 14:01 -34.75329 -64.86009 36991 ft 513 kts 97°
2026-05-05 14:01 -34.76117 -64.77394 36992 ft 512 kts 97°
2026-05-05 14:02 -34.76903 -64.68780 36993 ft 512 kts 97°
2026-05-05 14:02 -34.77687 -64.60171 36995 ft 512 kts 97°
2026-05-05 14:03 -34.78473 -64.51564 36995 ft 512 kts 97°
2026-05-05 14:03 -34.79253 -64.42961 36990 ft 512 kts 97°
2026-05-05 14:04 -34.80026 -64.34304 36992 ft 511 kts 97°
2026-05-05 14:04 -34.80789 -64.25702 36999 ft 511 kts 97°
2026-05-05 14:05 -34.81557 -64.17100 37004 ft 511 kts 97°
2026-05-05 14:05 -34.82321 -64.08506 37002 ft 511 kts 97°
2026-05-05 14:06 -34.83062 -63.99916 37001 ft 510 kts 97°
2026-05-05 14:06 -34.83798 -63.91327 36999 ft 510 kts 97°
2026-05-05 14:07 -34.84531 -63.82742 37000 ft 510 kts 97°
2026-05-05 14:07 -34.85253 -63.74158 36996 ft 510 kts 97°
2026-05-05 14:08 -34.85983 -63.65579 36998 ft 509 kts 97°
2026-05-05 14:08 -34.86691 -63.57001 36997 ft 509 kts 96°
2026-05-05 14:09 -34.87399 -63.48426 36997 ft 509 kts 96°
2026-05-05 14:09 -34.88111 -63.39797 37000 ft 509 kts 96°
2026-05-05 14:10 -34.88813 -63.31231 36996 ft 508 kts 96°
2026-05-05 14:10 -34.89519 -63.22662 36997 ft 508 kts 96°
2026-05-05 14:11 -34.90207 -63.14089 36997 ft 508 kts 96°
2026-05-05 14:11 -34.90884 -63.05532 36997 ft 508 kts 96°
2026-05-05 14:12 -34.91555 -62.96962 37003 ft 508 kts 96°
2026-05-05 14:12 -34.92228 -62.88406 37000 ft 507 kts 96°
2026-05-05 14:13 -34.92896 -62.79842 37000 ft 507 kts 96°
2026-05-05 14:13 -34.93561 -62.71288 36998 ft 507 kts 96°
2026-05-05 14:14 -34.94207 -62.62737 36998 ft 507 kts 96°
2026-05-05 14:14 -34.94837 -62.54187 37002 ft 506 kts 96°
2026-05-05 14:15 -34.95469 -62.45591 37000 ft 506 kts 96°
2026-05-05 14:15 -34.96098 -62.37052 36995 ft 506 kts 96°
2026-05-05 14:16 -34.96699 -62.28505 36994 ft 506 kts 95°
2026-05-05 14:16 -34.97054 -62.19943 37000 ft 506 kts 92°
2026-05-05 14:17 -34.97244 -62.11377 36999 ft 506 kts 92°
2026-05-05 14:17 -34.97472 -62.02808 37002 ft 506 kts 92°
2026-05-05 14:18 -34.97751 -61.94241 37004 ft 505 kts 92°
2026-05-05 14:18 -34.98030 -61.85681 37007 ft 505 kts 92°
2026-05-05 14:19 -34.98289 -61.77115 37006 ft 505 kts 92°
2026-05-05 14:19 -34.98542 -61.68555 37007 ft 505 kts 92°
2026-05-05 14:20 -34.98786 -61.59990 37010 ft 505 kts 92°
2026-05-05 14:20 -34.99018 -61.51376 37012 ft 505 kts 92°
2026-05-05 14:21 -34.99244 -61.42811 37015 ft 505 kts 92°
2026-05-05 14:21 -34.99458 -61.34259 37021 ft 505 kts 92°
2026-05-05 14:22 -34.99670 -61.25701 37016 ft 505 kts 92°
2026-05-05 14:22 -34.99879 -61.17146 37019 ft 504 kts 92°
2026-05-05 14:23 -35.00077 -61.08604 37019 ft 504 kts 92°
2026-05-05 14:23 -35.00273 -61.00057 37016 ft 504 kts 92°
2026-05-05 14:24 -35.00469 -60.91507 37017 ft 504 kts 92°
2026-05-05 14:24 -35.00650 -60.82959 37015 ft 504 kts 91°
2026-05-05 14:25 -35.00821 -60.74416 37016 ft 504 kts 92°
2026-05-05 14:25 -35.00996 -60.65880 36767 ft 503 kts 91°
2026-05-05 14:26 -35.01082 -60.61612 36499 ft 502 kts 91°
2026-05-05 14:26 -35.01140 -60.58745 36338 ft 502 kts 91°
2026-05-05 14:26 -35.01226 -60.54483 36087 ft 501 kts 91°
2026-05-05 14:26 -35.01306 -60.50234 35842 ft 501 kts 91°
2026-05-05 14:27 -35.01382 -60.45994 35593 ft 500 kts 91°
2026-05-05 14:27 -35.01453 -60.41767 35348 ft 497 kts 91°
2026-05-05 14:27 -35.01520 -60.37558 34903 ft 495 kts 91°
2026-05-05 14:27 -35.01588 -60.33367 34292 ft 495 kts 91°
2026-05-05 14:28 -35.01661 -60.29176 33650 ft 494 kts 91°
2026-05-05 14:28 -35.01733 -60.24996 33054 ft 491 kts 91°
2026-05-05 14:28 -35.01801 -60.20839 32463 ft 489 kts 91°
2026-05-05 14:28 -35.01865 -60.16703 31880 ft 487 kts 91°
2026-05-05 14:29 -35.01928 -60.12587 31296 ft 485 kts 91°
2026-05-05 14:29 -35.01990 -60.08476 30725 ft 483 kts 91°
2026-05-05 14:29 -35.02050 -60.04396 30158 ft 481 kts 91°
2026-05-05 14:29 -35.02109 -60.00324 29610 ft 477 kts 91°
2026-05-05 14:30 -35.02168 -59.96297 29001 ft 474 kts 90°
2026-05-05 14:30 -35.02224 -59.92250 28487 ft 469 kts 90°
2026-05-05 14:30 -35.02276 -59.88292 27960 ft 465 kts 90°
2026-05-05 14:30 -35.02325 -59.84367 27441 ft 461 kts 90°
2026-05-05 14:31 -35.02373 -59.80476 26917 ft 457 kts 90°
2026-05-05 14:31 -35.02420 -59.76613 26407 ft 454 kts 90°
2026-05-05 14:31 -35.02466 -59.72777 25873 ft 451 kts 90°
2026-05-05 14:31 -35.02510 -59.68963 25353 ft 449 kts 90°
2026-05-05 14:32 -35.02552 -59.65172 24864 ft 445 kts 89°
2026-05-05 14:32 -35.02351 -59.61426 24375 ft 441 kts 78°
2026-05-05 14:32 -35.01725 -59.57786 23871 ft 437 kts 75°
2026-05-05 14:32 -35.01068 -59.54169 23337 ft 436 kts 75°
2026-05-05 14:33 -35.00418 -59.50577 22844 ft 431 kts 75°
2026-05-05 14:33 -34.99777 -59.47023 22326 ft 429 kts 75°
2026-05-05 14:33 -34.99139 -59.43487 21882 ft 425 kts 75°
2026-05-05 14:33 -34.98506 -59.39981 21449 ft 421 kts 75°
2026-05-05 14:34 -34.97875 -59.36508 20967 ft 418 kts 74°
2026-05-05 14:34 -34.97243 -59.33050 20472 ft 417 kts 74°
2026-05-05 14:34 -34.96617 -59.29634 20051 ft 413 kts 74°
2026-05-05 14:34 -34.95991 -59.26226 19674 ft 409 kts 74°
2026-05-05 14:35 -34.95375 -59.22855 19260 ft 406 kts 74°
2026-05-05 14:35 -34.94760 -59.19506 18841 ft 404 kts 74°
2026-05-05 14:35 -34.94138 -59.16130 18441 ft 401 kts 74°
2026-05-05 14:35 -34.93531 -59.12831 18021 ft 398 kts 74°
2026-05-05 14:36 -34.92926 -59.09542 17590 ft 395 kts 74°
2026-05-05 14:36 -34.92326 -59.06289 17164 ft 392 kts 74°
2026-05-05 14:36 -34.91712 -59.03063 16740 ft 388 kts 70°
2026-05-05 14:36 -34.90667 -59.00089 16339 ft 378 kts 54°
2026-05-05 14:37 -34.89064 -58.97627 15927 ft 366 kts 38°
2026-05-05 14:37 -34.87060 -58.95805 15532 ft 355 kts 23°
2026-05-05 14:37 -34.84852 -58.94542 15118 ft 350 kts 18°
2026-05-05 14:37 -34.82634 -58.93340 14713 ft 348 kts 18°
2026-05-05 14:38 -34.80425 -58.92142 14328 ft 346 kts 18°
2026-05-05 14:38 -34.78231 -58.90951 13955 ft 344 kts 19°
2026-05-05 14:38 -34.76050 -58.89768 13535 ft 342 kts 19°
2026-05-05 14:38 -34.73878 -58.88590 13134 ft 341 kts 19°
2026-05-05 14:39 -34.71725 -58.87421 12744 ft 338 kts 19°
2026-05-05 14:39 -34.69592 -58.86261 12144 ft 333 kts 19°
2026-05-05 14:39 -34.67488 -58.85114 11525 ft 330 kts 19°
2026-05-05 14:39 -34.65407 -58.83978 10987 ft 325 kts 19°
2026-05-05 14:40 -34.63378 -58.82874 10666 ft 311 kts 19°
2026-05-05 14:40 -34.61438 -58.81821 10233 ft 302 kts 19°
2026-05-05 14:40 -34.59543 -58.80796 9766 ft 294 kts 19°
2026-05-05 14:40 -34.57703 -58.79801 9353 ft 284 kts 19°
2026-05-05 14:41 -34.55856 -58.79039 8973 ft 278 kts
2026-05-05 14:41 -34.53941 -58.78761 8532 ft 277 kts
2026-05-05 14:41 -34.52022 -58.78546 8084 ft 275 kts
2026-05-05 14:41 -34.50122 -58.78322 7636 ft 267 kts
2026-05-05 14:42 -34.48317 -58.78102 7215 ft 260 kts
2026-05-05 14:42 -34.46504 -58.77882 6596 ft 259 kts
2026-05-05 14:42 -34.44736 -58.77669 6155 ft 250 kts
2026-05-05 14:42 -34.43013 -58.77463 5592 ft 247 kts
2026-05-05 14:43 -34.41313 -58.77262 4994 ft 246 kts
2026-05-05 14:43 -34.39612 -58.77063 4378 ft 245 kts
2026-05-05 14:43 -34.37938 -58.76711 3755 ft 248 kts 20°
2026-05-05 14:43 -34.36585 -58.75421 3194 ft 256 kts 55°
2026-05-05 14:44 -34.36135 -58.73384 3007 ft 253 kts 95°
2026-05-05 14:44 -34.36801 -58.71523 3000 ft 237 kts 136°
2026-05-05 14:44 -34.38143 -58.70532 3008 ft 223 kts 157°
2026-05-05 14:44 -34.39540 -58.69720 3008 ft 222 kts 151°
2026-05-05 14:45 -34.40721 -58.68532 3012 ft 222 kts 131°
2026-05-05 14:45 -34.41654 -58.67054 3006 ft 221 kts 125°
2026-05-05 14:45 -34.42523 -58.65513 3010 ft 221 kts 124°
2026-05-05 14:45 -34.43384 -58.63973 3007 ft 221 kts 124°
2026-05-05 14:46 -34.44248 -58.62432 3003 ft 221 kts 124°
2026-05-05 14:46 -34.45107 -58.60903 3004 ft 217 kts 124°
2026-05-05 14:46 -34.45948 -58.59403 3005 ft 213 kts 124°
2026-05-05 14:46 -34.46776 -58.57927 2934 ft 211 kts 124°
2026-05-05 14:47 -34.47601 -58.56456 2718 ft 210 kts 124°
2026-05-05 14:47 -34.48398 -58.55035 2461 ft 198 kts 124°
2026-05-05 14:47 -34.49142 -58.53706 2206 ft 184 kts 124°
2026-05-05 14:47 -34.49835 -58.52468 1986 ft 169 kts 123°
2026-05-05 14:48 -34.50465 -58.51343 1744 ft 155 kts 123°
2026-05-05 14:48 -34.51061 -58.50278 1523 ft 150 kts 124°
2026-05-05 14:48 -34.51641 -58.49242 1318 ft 147 kts 124°
2026-05-05 14:48 -34.52215 -58.48219 1224 ft 147 kts 123°
2026-05-05 14:49 -34.52797 -58.47183 1001 ft 145 kts 123°
2026-05-05 14:49 -34.53356 -58.46187 783 ft 145 kts 124°
2026-05-05 14:49 -34.53932 -58.45174 533 ft 144 kts 123°
2026-05-05 14:49 -34.54474 -58.44165 364 ft 143 kts 124°
2026-05-05 14:50 -34.55034 -58.43169 174 ft 142 kts 122°
2026-05-05 14:50 -34.55584 -58.42176 30 ft 137 kts 125°
2026-05-05 14:50 -34.55982 -58.41466 30 ft 59 kts 124°
2026-05-05 14:50 -34.56086 -58.41281 27 ft 16 kts 124°
2026-05-05 14:51 -34.56146 -58.41174 28 ft 14 kts 124°
2026-05-05 14:51 -34.56191 -58.41080 28 ft 12 kts 99°
2026-05-05 14:51 -34.56165 -58.40989 27 ft 11 kts 65°
2026-05-05 14:51 -34.56115 -58.40981 27 ft 8 kts 304°
2026-05-05 14:52 -34.56087 -58.41034 27 ft 7 kts 302°
2026-05-05 14:52 -34.56043 -58.41103 27 ft 15 kts 309°
2026-05-05 14:52 -34.55969 -58.41219 27 ft 13 kts 305°
2026-05-05 14:52 -34.55939 -58.41270 27 ft 6 kts 306°
2026-05-05 14:53 -34.55911 -58.41298 27 ft 5 kts 335°
2026-05-05 14:53 -34.55884 -58.41303 27 ft 3 kts
2026-05-05 14:53 -34.55864 -58.41298 27 ft 2 kts 18°
2026-05-05 14:53 -34.55846 -58.41287 27 ft 5 kts 30°
2026-05-05 14:54 -34.55823 -58.41264 27 ft 4 kts 42°
2026-05-05 14:54 -34.55807 -58.41249 27 ft 2 kts 39°
2026-05-05 14:54 -34.55804 -58.41246 27 ft 0 kts 39°